VCV90 SVMI-SVMC

Flight info

Callsign VCV90
Flight time 0h 53m
Altitude 36000
Route BUTSA2 PBL UW52 MAU
Aircraft E190/M-SDE3GILORVW/S

Departure

Time 2026-05-07 12:39
Airport Maiquetía Simón Bolívar International Airport (SVMI)

Arrival

Time 2026-05-07 13:33
Airport La Chinita International Airport (SVMC)
Time Latitude Longitude Altitude Speed Heading
2026-05-07 12:20 10.59832 -67.00077 201 ft 0 kts 178°
2026-05-07 12:31 10.59844 -67.00078 198 ft 4 kts 178°
2026-05-07 12:32 10.59871 -67.00078 199 ft 4 kts 178°
2026-05-07 12:32 10.59893 -67.00079 198 ft 4 kts 194°
2026-05-07 12:32 10.59910 -67.00067 198 ft 4 kts 264°
2026-05-07 12:32 10.59911 -67.00043 194 ft 1 kts 268°
2026-05-07 12:33 10.59911 -67.00042 194 ft 0 kts 268°
2026-05-07 12:34 10.59911 -67.00046 194 ft 1 kts 268°
2026-05-07 12:34 10.59910 -67.00063 197 ft 4 kts 268°
2026-05-07 12:35 10.59909 -67.00097 197 ft 6 kts 268°
2026-05-07 12:35 10.59907 -67.00148 197 ft 8 kts 268°
2026-05-07 12:35 10.59908 -67.00215 196 ft 11 kts 276°
2026-05-07 12:35 10.59941 -67.00284 198 ft 12 kts 326°
2026-05-07 12:36 10.60001 -67.00339 196 ft 13 kts 276°
2026-05-07 12:36 10.60000 -67.00441 202 ft 15 kts 268°
2026-05-07 12:36 10.59997 -67.00556 199 ft 17 kts 268°
2026-05-07 12:36 10.59993 -67.00683 206 ft 19 kts 268°
2026-05-07 12:37 10.59988 -67.00821 206 ft 20 kts 268°
2026-05-07 12:37 10.59984 -67.00972 211 ft 22 kts 268°
2026-05-07 12:37 10.59979 -67.01124 210 ft 19 kts 268°
2026-05-07 12:37 10.60002 -67.01233 214 ft 16 kts 326°
2026-05-07 12:38 10.60113 -67.01247 210 ft 17 kts 359°
2026-05-07 12:38 10.60244 -67.01249 207 ft 20 kts 358°
2026-05-07 12:38 10.60363 -67.01251 216 ft 13 kts 11°
2026-05-07 12:38 10.60385 -67.01160 212 ft 23 kts 86°
2026-05-07 12:39 10.60394 -67.00819 208 ft 80 kts 88°
2026-05-07 12:39 10.60421 -67.00037 197 ft 139 kts 88°
2026-05-07 12:39 10.60461 -66.98930 502 ft 170 kts 88°
2026-05-07 12:39 10.60491 -66.97669 1058 ft 185 kts 89°
2026-05-07 12:40 10.60545 -66.96303 1859 ft 202 kts 82°
2026-05-07 12:40 10.60867 -66.94865 2533 ft 219 kts 77°
2026-05-07 12:40 10.61221 -66.93331 3385 ft 228 kts 78°
2026-05-07 12:40 10.61820 -66.91787 4101 ft 254 kts 58°
2026-05-07 12:41 10.63252 -66.90611 4864 ft 274 kts 25°
2026-05-07 12:41 10.65129 -66.90147 5990 ft 280 kts
2026-05-07 12:41 10.67111 -66.90052 6781 ft 291 kts
2026-05-07 12:41 10.69144 -66.90030 7064 ft 289 kts
2026-05-07 12:42 10.71175 -66.90042 7196 ft 290 kts
2026-05-07 12:42 10.73185 -66.90066 8224 ft 289 kts
2026-05-07 12:42 10.75206 -66.90026 9226 ft 293 kts
2026-05-07 12:42 10.77235 -66.89926 10224 ft 297 kts
2026-05-07 12:43 10.79374 -66.89831 10922 ft 313 kts
2026-05-07 12:43 10.81587 -66.90067 11692 ft 330 kts 344°
2026-05-07 12:43 10.83582 -66.91315 12645 ft 342 kts 319°
2026-05-07 12:43 10.84978 -66.93267 13580 ft 354 kts 297°
2026-05-07 12:44 10.85552 -66.95723 14476 ft 362 kts 274°
2026-05-07 12:44 10.85512 -66.98299 15431 ft 366 kts 268°
2026-05-07 12:44 10.85385 -67.00906 16357 ft 370 kts 269°
2026-05-07 12:44 10.85281 -67.03531 17248 ft 374 kts 269°
2026-05-07 12:45 10.85164 -67.06192 18119 ft 378 kts 268°
2026-05-07 12:45 10.85025 -67.08846 18850 ft 381 kts 268°
2026-05-07 12:45 10.84852 -67.11551 19542 ft 384 kts 267°
2026-05-07 12:45 10.84643 -67.14286 20011 ft 390 kts 266°
2026-05-07 12:46 10.84372 -67.17052 20038 ft 393 kts 265°
2026-05-07 12:46 10.84070 -67.19802 20210 ft 388 kts 264°
2026-05-07 12:46 10.83627 -67.22490 21105 ft 384 kts 259°
2026-05-07 12:46 10.82978 -67.25133 21832 ft 386 kts 255°
2026-05-07 12:47 10.82255 -67.27788 22532 ft 388 kts 255°
2026-05-07 12:47 10.81542 -67.30413 23170 ft 391 kts 255°
2026-05-07 12:47 10.80809 -67.33087 23759 ft 394 kts 255°
2026-05-07 12:47 10.80068 -67.35778 24309 ft 395 kts 255°
2026-05-07 12:48 10.79324 -67.38474 24845 ft 395 kts 255°
2026-05-07 12:48 10.78578 -67.41171 25379 ft 396 kts 255°
2026-05-07 12:48 10.77829 -67.43870 25844 ft 398 kts 255°
2026-05-07 12:48 10.77072 -67.46590 26268 ft 401 kts 255°
2026-05-07 12:49 10.76311 -67.49329 26688 ft 403 kts 255°
2026-05-07 12:49 10.75553 -67.52050 27109 ft 406 kts 255°
2026-05-07 12:49 10.74782 -67.54816 27584 ft 407 kts 255°
2026-05-07 12:49 10.74008 -67.57589 28057 ft 408 kts 255°
2026-05-07 12:50 10.73232 -67.60369 28523 ft 409 kts 255°
2026-05-07 12:50 10.72453 -67.63157 28957 ft 410 kts 255°
2026-05-07 12:50 10.71673 -67.65945 29475 ft 408 kts 255°
2026-05-07 12:50 10.70908 -67.68683 29868 ft 409 kts 255°
2026-05-07 12:51 10.70127 -67.71475 30110 ft 412 kts 255°
2026-05-07 12:51 10.69343 -67.74274 30108 ft 410 kts 255°
2026-05-07 12:51 10.67779 -67.79854 30089 ft 409 kts 255°
2026-05-07 12:52 10.66231 -67.85374 30051 ft 409 kts 255°
2026-05-07 12:52 10.65200 -67.88047 30452 ft 402 kts 242°
2026-05-07 12:52 10.63555 -67.90377 30767 ft 406 kts 231°
2026-05-07 12:53 10.61697 -67.92528 31142 ft 405 kts 231°
2026-05-07 12:53 10.59826 -67.94690 31484 ft 406 kts 231°
2026-05-07 12:53 10.57975 -67.96820 31785 ft 407 kts 231°
2026-05-07 12:53 10.56086 -67.98988 32047 ft 410 kts 231°
2026-05-07 12:54 10.54181 -68.01170 32277 ft 413 kts 231°
2026-05-07 12:54 10.52262 -68.03364 32470 ft 417 kts 231°
2026-05-07 12:54 10.50394 -68.05623 32705 ft 418 kts 238°
2026-05-07 12:54 10.49126 -68.08268 32936 ft 416 kts 255°
2026-05-07 12:55 10.48686 -68.11161 33209 ft 416 kts 270°
2026-05-07 12:55 10.48805 -68.14069 33510 ft 417 kts 273°
2026-05-07 12:55 10.48980 -68.17019 33822 ft 417 kts 273°
2026-05-07 12:55 10.49159 -68.19969 34102 ft 417 kts 273°
2026-05-07 12:56 10.49341 -68.22915 34372 ft 417 kts 273°
2026-05-07 12:56 10.49526 -68.25856 34659 ft 416 kts 274°
2026-05-07 12:56 10.49712 -68.28792 34932 ft 416 kts 274°
2026-05-07 12:56 10.49900 -68.31726 35206 ft 415 kts 274°
2026-05-07 12:57 10.50089 -68.34615 35456 ft 415 kts 274°
2026-05-07 12:57 10.50282 -68.37541 35741 ft 414 kts 274°
2026-05-07 12:57 10.50475 -68.40456 36067 ft 408 kts 274°
2026-05-07 12:57 10.50667 -68.43326 36095 ft 408 kts 274°
2026-05-07 12:58 10.51085 -68.49106 36076 ft 411 kts 274°
2026-05-07 12:58 10.51499 -68.54916 36077 ft 412 kts 274°
2026-05-07 12:59 10.51908 -68.60708 36091 ft 414 kts 274°
2026-05-07 12:59 10.52322 -68.66540 36042 ft 414 kts 274°
2026-05-07 13:00 10.52734 -68.72359 36033 ft 414 kts 274°
2026-05-07 13:00 10.53145 -68.78217 36030 ft 415 kts 274°
2026-05-07 13:01 10.53556 -68.84078 36036 ft 415 kts 274°
2026-05-07 13:01 10.53894 -68.88918 36039 ft 416 kts 274°
2026-05-07 13:02 10.54304 -68.94778 36042 ft 416 kts 274°
2026-05-07 13:02 10.54757 -69.00653 36039 ft 416 kts 275°
2026-05-07 13:03 10.55229 -69.06525 36033 ft 417 kts 275°
2026-05-07 13:03 10.55700 -69.12406 36034 ft 417 kts 275°
2026-05-07 13:04 10.56168 -69.18283 36043 ft 417 kts 275°
2026-05-07 13:04 10.56633 -69.24133 36034 ft 418 kts 275°
2026-05-07 13:05 10.57100 -69.30026 36033 ft 418 kts 275°
2026-05-07 13:05 10.57565 -69.35924 36040 ft 419 kts 275°
2026-05-07 13:06 10.58029 -69.41825 36035 ft 419 kts 275°
2026-05-07 13:06 10.58495 -69.47749 36034 ft 420 kts 275°
2026-05-07 13:07 10.58959 -69.53666 36032 ft 420 kts 275°
2026-05-07 13:07 10.59418 -69.59546 36035 ft 420 kts 275°
2026-05-07 13:08 10.59880 -69.65469 36029 ft 420 kts 275°
2026-05-07 13:08 10.60341 -69.71399 36026 ft 421 kts 275°
2026-05-07 13:09 10.60736 -69.77344 36020 ft 422 kts 275°
2026-05-07 13:09 10.61132 -69.83308 36017 ft 422 kts 275°
2026-05-07 13:10 10.61526 -69.89258 36017 ft 422 kts 275°
2026-05-07 13:10 10.61919 -69.95186 36011 ft 423 kts 275°
2026-05-07 13:11 10.62313 -70.01158 36013 ft 424 kts 275°
2026-05-07 13:11 10.62709 -70.07139 36004 ft 424 kts 275°
2026-05-07 13:12 10.63103 -70.13123 36009 ft 424 kts 275°
2026-05-07 13:12 10.63498 -70.19108 35534 ft 429 kts 275°
2026-05-07 13:13 10.63696 -70.22129 35247 ft 428 kts 275°
2026-05-07 13:13 10.63895 -70.25168 34593 ft 433 kts 275°
2026-05-07 13:13 10.64094 -70.28219 34013 ft 433 kts 274°
2026-05-07 13:13 10.64293 -70.31271 33414 ft 431 kts 274°
2026-05-07 13:14 10.64490 -70.34311 32841 ft 430 kts 274°
2026-05-07 13:14 10.64687 -70.37319 32286 ft 431 kts 275°
2026-05-07 13:14 10.64885 -70.40369 31695 ft 434 kts 275°
2026-05-07 13:14 10.65079 -70.43436 31134 ft 436 kts 274°
2026-05-07 13:15 10.65270 -70.46517 30536 ft 438 kts 275°
2026-05-07 13:15 10.65461 -70.49610 29955 ft 440 kts 275°
2026-05-07 13:15 10.65654 -70.52719 29362 ft 441 kts 275°
2026-05-07 13:15 10.65847 -70.55846 28772 ft 445 kts 275°
2026-05-07 13:16 10.66042 -70.58989 28185 ft 444 kts 275°
2026-05-07 13:16 10.66236 -70.62118 27593 ft 441 kts 275°
2026-05-07 13:16 10.66428 -70.65223 27008 ft 438 kts 275°
2026-05-07 13:16 10.66615 -70.68264 26429 ft 435 kts 275°
2026-05-07 13:17 10.66804 -70.71329 25857 ft 433 kts 275°
2026-05-07 13:17 10.66991 -70.74375 25280 ft 430 kts 275°
2026-05-07 13:17 10.67176 -70.77401 24708 ft 428 kts 275°
2026-05-07 13:17 10.67360 -70.80412 24131 ft 425 kts 275°
2026-05-07 13:18 10.67544 -70.83413 23575 ft 423 kts 275°
2026-05-07 13:18 10.67728 -70.86391 22984 ft 419 kts 275°
2026-05-07 13:18 10.67907 -70.89335 22445 ft 416 kts 275°
2026-05-07 13:18 10.68087 -70.92276 21895 ft 415 kts 275°
2026-05-07 13:19 10.68262 -70.95202 21335 ft 413 kts 275°
2026-05-07 13:19 10.68438 -70.98076 20798 ft 411 kts 275°
2026-05-07 13:19 10.68613 -71.00974 20247 ft 409 kts 275°
2026-05-07 13:19 10.68716 -71.03861 19700 ft 409 kts 268°
2026-05-07 13:20 10.68004 -71.06654 19180 ft 410 kts 244°
2026-05-07 13:20 10.66506 -71.09121 18673 ft 410 kts 238°
2026-05-07 13:20 10.65014 -71.11595 18073 ft 409 kts 240°
2026-05-07 13:20 10.63570 -71.14081 17522 ft 405 kts 240°
2026-05-07 13:21 10.62177 -71.16515 17007 ft 401 kts 240°
2026-05-07 13:21 10.60791 -71.18967 16473 ft 399 kts 240°
2026-05-07 13:21 10.59416 -71.21422 15952 ft 397 kts 240°
2026-05-07 13:21 10.58060 -71.23857 15426 ft 394 kts 239°
2026-05-07 13:22 10.56718 -71.26277 14891 ft 392 kts 239°
2026-05-07 13:22 10.55387 -71.28679 14383 ft 386 kts 239°
2026-05-07 13:22 10.54084 -71.31042 13871 ft 380 kts 239°
2026-05-07 13:22 10.52804 -71.33365 13340 ft 373 kts 239°
2026-05-07 13:23 10.51548 -71.35643 12879 ft 365 kts 239°
2026-05-07 13:23 10.50318 -71.37875 12387 ft 358 kts 238°
2026-05-07 13:23 10.49111 -71.40065 11932 ft 352 kts 238°
2026-05-07 13:23 10.47940 -71.42194 11463 ft 347 kts 239°
2026-05-07 13:24 10.46771 -71.44317 11010 ft 342 kts 239°
2026-05-07 13:24 10.45613 -71.46416 10552 ft 338 kts 239°
2026-05-07 13:24 10.44472 -71.48486 10114 ft 333 kts 239°
2026-05-07 13:24 10.43728 -71.49838 9823 ft 329 kts 239°
2026-05-07 13:25 10.43144 -71.50899 9570 ft 327 kts 239°
2026-05-07 13:25 10.42042 -71.52900 9159 ft 320 kts 239°
2026-05-07 13:25 10.40963 -71.54858 8735 ft 315 kts 239°
2026-05-07 13:25 10.39897 -71.56791 8322 ft 310 kts 239°
2026-05-07 13:26 10.38852 -71.58689 7911 ft 306 kts 239°
2026-05-07 13:26 10.37834 -71.60535 7513 ft 302 kts 239°
2026-05-07 13:26 10.36814 -71.62384 7117 ft 298 kts 239°
2026-05-07 13:26 10.35804 -71.64217 6719 ft 295 kts 240°
2026-05-07 13:27 10.34934 -71.66083 6342 ft 291 kts 249°
2026-05-07 13:27 10.34260 -71.68009 5950 ft 288 kts 249°
2026-05-07 13:27 10.33561 -71.69906 5561 ft 284 kts 248°
2026-05-07 13:27 10.32865 -71.71777 5187 ft 281 kts 248°
2026-05-07 13:28 10.32378 -71.73682 4767 ft 282 kts 268°
2026-05-07 13:28 10.32859 -71.75581 4427 ft 279 kts 301°
2026-05-07 13:28 10.34205 -71.76881 4138 ft 267 kts 334°
2026-05-07 13:28 10.35952 -71.77357 3872 ft 257 kts 349°
2026-05-07 13:29 10.37684 -71.77772 3501 ft 254 kts 343°
2026-05-07 13:29 10.39364 -71.78303 3157 ft 250 kts 341°
2026-05-07 13:29 10.40998 -71.78797 2871 ft 240 kts 350°
2026-05-07 13:29 10.42610 -71.78654 2643 ft 231 kts 19°
2026-05-07 13:30 10.44084 -71.78018 2336 ft 228 kts 26°
2026-05-07 13:30 10.45502 -71.77359 2016 ft 215 kts 24°
2026-05-07 13:30 10.46792 -71.76783 1809 ft 191 kts 24°
2026-05-07 13:30 10.47953 -71.76276 1513 ft 179 kts 23°
2026-05-07 13:31 10.49050 -71.75803 1310 ft 163 kts 24°
2026-05-07 13:31 10.50028 -71.75378 1219 ft 143 kts 24°
2026-05-07 13:31 10.50937 -71.74984 1013 ft 141 kts 23°
2026-05-07 13:31 10.51833 -71.74597 792 ft 139 kts 23°
2026-05-07 13:32 10.52740 -71.74203 626 ft 141 kts 22°
2026-05-07 13:32 10.53659 -71.73814 425 ft 143 kts 22°
2026-05-07 13:32 10.54571 -71.73425 259 ft 140 kts 22°
2026-05-07 13:32 10.55401 -71.73075 224 ft 112 kts 23°
2026-05-07 13:33 10.55963 -71.72828 220 ft 64 kts 23°
2026-05-07 13:33 10.56261 -71.72703 221 ft 41 kts 22°
2026-05-07 13:33 10.56436 -71.72584 221 ft 29 kts 57°
2026-05-07 13:33 10.56557 -71.72409 221 ft 31 kts 54°
2026-05-07 13:34 10.56571 -71.72307 218 ft 1 kts 110°
2026-05-07 13:34 10.56604 -71.72264 218 ft 8 kts 21°
2026-05-07 13:34 10.56659 -71.72283 220 ft 10 kts 310°
2026-05-07 13:35 10.56630 -71.72343 219 ft 13 kts 205°
2026-05-07 13:35 10.56540 -71.72383 219 ft 16 kts 203°
2026-05-07 13:35 10.56421 -71.72433 218 ft 21 kts 202°
2026-05-07 13:35 10.56296 -71.72487 221 ft 17 kts 202°
2026-05-07 13:36 10.56176 -71.72537 219 ft 20 kts 203°
2026-05-07 13:36 10.56053 -71.72590 216 ft 16 kts 202°
2026-05-07 13:36 10.55980 -71.72527 218 ft 16 kts 114°
2026-05-07 13:36 10.55935 -71.72438 220 ft 12 kts 135°
2026-05-07 13:37 10.55862 -71.72452 218 ft 10 kts 200°
2026-05-07 13:37 10.55803 -71.72474 218 ft 7 kts 200°
2026-05-07 13:37 10.55754 -71.72495 219 ft 9 kts 207°
2026-05-07 13:37 10.55693 -71.72523 217 ft 10 kts 201°
2026-05-07 13:38 10.55625 -71.72520 217 ft 10 kts 167°
2026-05-07 13:38 10.55587 -71.72522 224 ft 2 kts 188°
2026-05-07 13:38 10.55572 -71.72525 221 ft 2 kts 189°
2026-05-07 13:38 10.55571 -71.72525 220 ft 0 kts 189°